User: anonymous   Login
Location: Unspecified
(0.0000°N, 0.0000°E)
Time: 03:33:29
(UTC+00:00)
Language:

Apollo 12 - Orbit

View from above orbital plane
View from above orbital plane
View from above satellite
View from above satellite

Ground track
Ground track

The orbit is defined by the following mean orbital elements,

1 04225U 69099  A 69318.67491029  .01999999 +00000-0 +00000-0 0  9996
2 04225 032.5565 159.6900 0000010 273.0803 086.9196 16.32726311000006
Epoch (UTC): 14 November 1969 16:11:52
Eccentricity: 0.0000010
inclination: 32.5565°
perigee height: 185 km
apogee height: 185 km
right ascension of ascending node: 159.6900°
argument of perigee: 273.0803°
revolutions per day: 16.32726311
mean anomaly at epoch: 86.9196°

The dashed part of the orbit path shows where the satellite is in the earth's shadow,  

DLR